DLH205 PHNL-CYYC

Flight info

Callsign DLH205
Flight time N/A
Altitude 39000
Route MKK5 APACK R463 AUNTI DCT ZINNO A331 SEDAR DCT TWISP DCT MENBO Q983 NORET IGVEP7
Aircraft A388/J-SADE2E3FGHIJ3J4J5M1RWXY/LB1D1

Departure

Time N/A
Airport Daniel K. Inouye International Airport (PHNL)

Arrival

Time 2026-05-05 23:34
Airport Calgary International Airport (CYYC)
Time Latitude Longitude Altitude Speed Heading
2026-05-05 21:56 44.44551 -128.93972 39113 ft 522 kts 56°
2026-05-05 21:56 44.47759 -128.87501 39105 ft 520 kts 56°
2026-05-05 21:57 44.51847 -128.79236 39109 ft 518 kts 56°
2026-05-05 21:57 44.55941 -128.70936 39109 ft 518 kts 56°
2026-05-05 21:58 44.60005 -128.62673 39109 ft 517 kts 56°
2026-05-05 21:58 44.64061 -128.54402 39109 ft 517 kts 56°
2026-05-05 21:59 44.68122 -128.46095 39109 ft 517 kts 56°
2026-05-05 21:59 44.72162 -128.37810 39109 ft 516 kts 56°
2026-05-05 22:00 44.76193 -128.29519 39111 ft 516 kts 56°
2026-05-05 22:00 44.80218 -128.21215 39110 ft 516 kts 56°
2026-05-05 22:01 44.84253 -128.12868 39109 ft 517 kts 56°
2026-05-05 22:01 44.88271 -128.04531 39113 ft 517 kts 56°
2026-05-05 22:02 44.92278 -127.96192 39119 ft 514 kts 56°
2026-05-05 22:02 44.96273 -127.87853 39118 ft 513 kts 56°
2026-05-05 22:03 45.00254 -127.79521 39118 ft 514 kts 56°
2026-05-05 22:03 45.04234 -127.71167 39118 ft 514 kts 56°
2026-05-05 22:04 45.08204 -127.62809 39117 ft 515 kts 56°
2026-05-05 22:04 45.12183 -127.54408 39120 ft 515 kts 55°
2026-05-05 22:05 45.16141 -127.46026 39119 ft 515 kts 55°
2026-05-05 22:05 45.20095 -127.37627 39119 ft 515 kts 55°
2026-05-05 22:06 45.24056 -127.29188 39120 ft 514 kts 56°
2026-05-05 22:06 45.27994 -127.20775 39120 ft 514 kts 56°
2026-05-05 22:07 45.31923 -127.12355 39119 ft 514 kts 56°
2026-05-05 22:07 45.35844 -127.03929 39120 ft 513 kts 56°
2026-05-05 22:08 45.39770 -126.95467 39119 ft 513 kts 56°
2026-05-05 22:08 45.43672 -126.87028 39119 ft 513 kts 56°
2026-05-05 22:09 45.47564 -126.78588 39117 ft 512 kts 56°
2026-05-05 22:09 45.51602 -126.70258 39118 ft 511 kts 52°
2026-05-05 22:10 45.55951 -126.62306 39114 ft 511 kts 50°
2026-05-05 22:10 45.60329 -126.54392 39110 ft 511 kts 50°
2026-05-05 22:11 45.64703 -126.46463 39108 ft 510 kts 50°
2026-05-05 22:11 45.69084 -126.38500 39108 ft 510 kts 50°
2026-05-05 22:12 45.73441 -126.30557 39110 ft 510 kts 50°
2026-05-05 22:12 45.77798 -126.22597 39108 ft 510 kts 50°
2026-05-05 22:13 45.82162 -126.14596 39109 ft 510 kts 50°
2026-05-05 22:13 45.86503 -126.06617 39108 ft 510 kts 50°
2026-05-05 22:14 45.90840 -125.98622 39108 ft 510 kts 50°
2026-05-05 22:14 45.95175 -125.90607 39107 ft 510 kts 50°
2026-05-05 22:15 45.99516 -125.82559 39107 ft 510 kts 50°
2026-05-05 22:15 46.03840 -125.74517 39107 ft 510 kts 50°
2026-05-05 22:16 46.08153 -125.66475 39107 ft 510 kts 50°
2026-05-05 22:16 46.12475 -125.58393 39113 ft 510 kts 50°
2026-05-05 22:17 46.16777 -125.50325 39112 ft 510 kts 50°
2026-05-05 22:17 46.21068 -125.42253 39111 ft 509 kts 50°
2026-05-05 22:18 46.25351 -125.34172 39111 ft 509 kts 51°
2026-05-05 22:18 46.29644 -125.26052 39112 ft 509 kts 51°
2026-05-05 22:19 46.33911 -125.17956 39111 ft 509 kts 50°
2026-05-05 22:19 46.38170 -125.09852 39111 ft 508 kts 50°
2026-05-05 22:20 46.42434 -125.01713 39110 ft 508 kts 50°
2026-05-05 22:20 46.46671 -124.93603 39111 ft 507 kts 50°
2026-05-05 22:21 46.50902 -124.85483 39110 ft 507 kts 50°
2026-05-05 22:21 46.55119 -124.77364 39109 ft 506 kts 50°
2026-05-05 22:22 46.59342 -124.69209 39109 ft 505 kts 50°
2026-05-05 22:22 46.63541 -124.61081 39109 ft 505 kts 50°
2026-05-05 22:23 46.67730 -124.52942 39109 ft 505 kts 50°
2026-05-05 22:23 46.71927 -124.44770 39108 ft 505 kts 50°
2026-05-05 22:24 46.76105 -124.36607 39098 ft 505 kts 50°
2026-05-05 22:24 46.80277 -124.28432 39098 ft 505 kts 51°
2026-05-05 22:25 46.84441 -124.20249 39098 ft 505 kts 51°
2026-05-05 22:25 46.88615 -124.12023 39097 ft 505 kts 51°
2026-05-05 22:26 46.92771 -124.03807 39096 ft 506 kts 50°
2026-05-05 22:26 46.96912 -123.95588 39089 ft 502 kts 50°
2026-05-05 22:27 47.01049 -123.87370 39082 ft 502 kts 50°
2026-05-05 22:27 47.05165 -123.79162 39077 ft 502 kts 50°
2026-05-05 22:28 47.09274 -123.70940 39076 ft 502 kts 50°
2026-05-05 22:28 47.13378 -123.62709 39087 ft 503 kts 50°
2026-05-05 22:29 47.17495 -123.54423 39086 ft 503 kts 50°
2026-05-05 22:29 47.21591 -123.46156 39086 ft 503 kts 50°
2026-05-05 22:30 47.25678 -123.37881 39085 ft 502 kts 50°
2026-05-05 22:30 47.29776 -123.29559 39084 ft 503 kts 50°
2026-05-05 22:31 47.33863 -123.21235 39084 ft 503 kts 50°
2026-05-05 22:31 47.37936 -123.12915 39084 ft 503 kts 50°
2026-05-05 22:32 47.42012 -123.04563 39081 ft 502 kts 50°
2026-05-05 22:32 47.46065 -122.96230 39078 ft 502 kts 50°
2026-05-05 22:33 47.50114 -122.87886 39080 ft 502 kts 50°
2026-05-05 22:33 47.54153 -122.79535 39082 ft 502 kts 50°
2026-05-05 22:34 47.58197 -122.71145 39081 ft 502 kts 50°
2026-05-05 22:34 47.62223 -122.62767 39081 ft 501 kts 50°
2026-05-05 22:35 47.66240 -122.54386 39081 ft 502 kts 50°
2026-05-05 22:35 47.70265 -122.45962 39080 ft 501 kts 50°
2026-05-05 22:36 47.74270 -122.37549 39080 ft 501 kts 50°
2026-05-05 22:36 47.78276 -122.29115 39079 ft 502 kts 50°
2026-05-05 22:37 47.82272 -122.20672 39078 ft 502 kts 50°
2026-05-05 22:37 47.86281 -122.12178 39076 ft 502 kts 50°
2026-05-05 22:38 47.90268 -122.03702 39063 ft 502 kts 50°
2026-05-05 22:38 47.94249 -121.95213 39053 ft 502 kts 50°
2026-05-05 22:39 47.98238 -121.86680 39047 ft 502 kts 50°
2026-05-05 22:39 48.02205 -121.78168 39049 ft 502 kts 50°
2026-05-05 22:40 48.06168 -121.69638 39048 ft 502 kts 50°
2026-05-05 22:40 48.10119 -121.61105 39048 ft 502 kts 50°
2026-05-05 22:41 48.14082 -121.52520 39061 ft 503 kts 50°
2026-05-05 22:41 48.18028 -121.43946 39060 ft 502 kts 50°
2026-05-05 22:42 48.21965 -121.35366 39060 ft 502 kts 50°
2026-05-05 22:42 48.25915 -121.26728 39058 ft 502 kts 50°
2026-05-05 22:43 48.29837 -121.18122 39056 ft 502 kts 50°
2026-05-05 22:43 48.33757 -121.09496 39008 ft 502 kts 50°
2026-05-05 22:44 48.37665 -121.00870 38955 ft 502 kts 50°
2026-05-05 22:44 48.41575 -120.92208 38909 ft 500 kts 50°
2026-05-05 22:45 48.45416 -120.83674 38908 ft 493 kts 50°
2026-05-05 22:45 48.49231 -120.75175 38909 ft 492 kts 50°
2026-05-05 22:46 48.53047 -120.66640 38915 ft 491 kts 50°
2026-05-05 22:46 48.56839 -120.58138 38921 ft 491 kts 50°
2026-05-05 22:47 48.60626 -120.49617 38928 ft 491 kts 50°
2026-05-05 22:47 48.64404 -120.41086 38934 ft 491 kts 50°
2026-05-05 22:48 48.68194 -120.32508 38932 ft 491 kts 51°
2026-05-05 22:48 48.71962 -120.23950 38933 ft 491 kts 51°
2026-05-05 22:49 48.75723 -120.15379 38927 ft 491 kts 51°
2026-05-05 22:49 48.79492 -120.06762 38920 ft 491 kts 51°
2026-05-05 22:50 48.83238 -119.98166 38915 ft 490 kts 50°
2026-05-05 22:50 48.86963 -119.89600 38911 ft 488 kts 50°
2026-05-05 22:51 48.90677 -119.81027 38912 ft 489 kts 50°
2026-05-05 22:51 48.94399 -119.72410 38912 ft 488 kts 50°
2026-05-05 22:52 48.98096 -119.63819 38911 ft 487 kts 50°
2026-05-05 22:52 49.01784 -119.55228 38910 ft 487 kts 50°
2026-05-05 22:53 49.05476 -119.46595 38909 ft 487 kts 50°
2026-05-05 22:53 49.09149 -119.37982 38908 ft 487 kts 50°
2026-05-05 22:54 49.12823 -119.29337 38925 ft 488 kts 51°
2026-05-05 22:54 49.16487 -119.20687 38923 ft 487 kts 50°
2026-05-05 22:55 49.20156 -119.11997 38923 ft 487 kts 50°
2026-05-05 22:55 49.23802 -119.03332 38922 ft 487 kts 50°
2026-05-05 22:56 49.27437 -118.94665 38927 ft 486 kts 50°
2026-05-05 22:56 49.31081 -118.85954 38933 ft 486 kts 50°
2026-05-05 22:57 49.34700 -118.77269 38939 ft 486 kts 50°
2026-05-05 22:57 49.38313 -118.68570 38939 ft 485 kts 50°
2026-05-05 22:58 49.41914 -118.59874 38939 ft 485 kts 50°
2026-05-05 22:58 49.45518 -118.51141 38938 ft 485 kts 50°
2026-05-05 22:59 49.49101 -118.42430 38937 ft 484 kts 50°
2026-05-05 22:59 49.52677 -118.33705 38936 ft 484 kts 51°
2026-05-05 23:00 49.58041 -118.20570 38934 ft 484 kts 50°
2026-05-05 23:00 49.61599 -118.11818 38934 ft 484 kts 50°
2026-05-05 23:01 49.65147 -118.03063 38933 ft 484 kts 50°
2026-05-05 23:01 49.68702 -117.94260 38932 ft 484 kts 50°
2026-05-05 23:02 49.72235 -117.85486 38932 ft 484 kts 50°
2026-05-05 23:02 49.75760 -117.76699 38931 ft 484 kts 50°
2026-05-05 23:03 49.79279 -117.67899 38937 ft 483 kts 50°
2026-05-05 23:03 49.82805 -117.59053 38947 ft 484 kts 50°
2026-05-05 23:04 49.86306 -117.50237 38956 ft 483 kts 50°
2026-05-05 23:04 49.89802 -117.41408 38966 ft 483 kts 50°
2026-05-05 23:05 49.93311 -117.32513 38972 ft 484 kts 51°
2026-05-05 23:05 49.96795 -117.23653 38973 ft 483 kts 51°
2026-05-05 23:06 50.00268 -117.14789 38972 ft 482 kts 51°
2026-05-05 23:06 50.03748 -117.05882 38595 ft 487 kts 51°
2026-05-05 23:07 50.05502 -117.01373 38121 ft 486 kts 51°
2026-05-05 23:07 50.07237 -116.96911 37655 ft 484 kts 50°
2026-05-05 23:07 50.08965 -116.92462 37189 ft 483 kts 50°
2026-05-05 23:07 50.10687 -116.88012 36730 ft 480 kts 50°
2026-05-05 23:08 50.12395 -116.83601 36251 ft 477 kts 50°
2026-05-05 23:08 50.14089 -116.79214 35764 ft 474 kts 50°
2026-05-05 23:08 50.15769 -116.74854 35278 ft 470 kts 50°
2026-05-05 23:08 50.17450 -116.70491 34786 ft 467 kts 50°
2026-05-05 23:09 50.19104 -116.66186 34297 ft 463 kts 50°
2026-05-05 23:09 50.20740 -116.61915 33808 ft 459 kts 50°
2026-05-05 23:09 50.22362 -116.57685 33316 ft 455 kts 50°
2026-05-05 23:09 50.23970 -116.53484 32827 ft 451 kts 50°
2026-05-05 23:10 50.25560 -116.49317 32335 ft 447 kts 50°
2026-05-05 23:10 50.27135 -116.45184 31845 ft 443 kts 50°
2026-05-05 23:10 50.28706 -116.41059 31349 ft 439 kts 50°
2026-05-05 23:10 50.30249 -116.36998 30857 ft 435 kts 50°
2026-05-05 23:11 50.31778 -116.32968 30362 ft 431 kts 51°
2026-05-05 23:11 50.33294 -116.28967 29867 ft 429 kts 51°
2026-05-05 23:11 50.34799 -116.24989 29364 ft 426 kts 51°
2026-05-05 23:11 50.36291 -116.21037 28747 ft 421 kts 51°
2026-05-05 23:12 50.37744 -116.17131 28115 ft 417 kts 53°
2026-05-05 23:12 50.38866 -116.12913 27480 ft 418 kts 59°
2026-05-05 23:12 50.39906 -116.08736 26863 ft 412 kts 60°
2026-05-05 23:12 50.40876 -116.04555 26238 ft 409 kts 61°
2026-05-05 23:13 50.41811 -116.00400 25615 ft 404 kts 61°
2026-05-05 23:13 50.42731 -115.96291 25007 ft 399 kts 62°
2026-05-05 23:13 50.43634 -115.92244 24507 ft 392 kts 62°
2026-05-05 23:13 50.44519 -115.88270 24002 ft 385 kts 61°
2026-05-05 23:14 50.45395 -115.84333 23493 ft 378 kts 61°
2026-05-05 23:14 50.46249 -115.80494 22989 ft 372 kts 61°
2026-05-05 23:14 50.47087 -115.76713 22485 ft 366 kts 61°
2026-05-05 23:14 50.47917 -115.72971 21985 ft 364 kts 61°
2026-05-05 23:15 50.48738 -115.69255 21488 ft 361 kts 61°
2026-05-05 23:15 50.49553 -115.65561 20989 ft 359 kts 61°
2026-05-05 23:15 50.50360 -115.61895 20490 ft 356 kts 62°
2026-05-05 23:15 50.51167 -115.58222 19987 ft 355 kts 62°
2026-05-05 23:16 50.51961 -115.54600 19489 ft 351 kts 62°
2026-05-05 23:16 50.52748 -115.51004 18989 ft 350 kts 62°
2026-05-05 23:16 50.53531 -115.47424 18490 ft 347 kts 62°
2026-05-05 23:16 50.54303 -115.43861 18073 ft 345 kts 62°
2026-05-05 23:17 50.55067 -115.40316 17701 ft 343 kts 62°
2026-05-05 23:17 50.55829 -115.36772 17327 ft 343 kts 62°
2026-05-05 23:17 50.56593 -115.33203 16948 ft 343 kts 64°
2026-05-05 23:17 50.57348 -115.29671 16571 ft 342 kts 64°
2026-05-05 23:18 50.58100 -115.26144 16210 ft 341 kts 64°
2026-05-05 23:18 50.58848 -115.22627 15959 ft 340 kts 64°
2026-05-05 23:18 50.59595 -115.19110 15707 ft 340 kts 64°
2026-05-05 23:18 50.60342 -115.15594 15455 ft 340 kts 65°
2026-05-05 23:19 50.61086 -115.12082 15204 ft 340 kts 65°
2026-05-05 23:19 50.61833 -115.08545 14956 ft 340 kts 65°
2026-05-05 23:19 50.62573 -115.05039 14620 ft 335 kts 65°
2026-05-05 23:19 50.63303 -115.01588 14246 ft 328 kts 65°
2026-05-05 23:20 50.64011 -114.98234 13905 ft 320 kts 65°
2026-05-05 23:20 50.64705 -114.94954 13563 ft 313 kts 65°
2026-05-05 23:20 50.65379 -114.91752 13223 ft 306 kts 66°
2026-05-05 23:20 50.66040 -114.88617 12884 ft 300 kts 66°
2026-05-05 23:21 50.66691 -114.85518 12543 ft 294 kts 66°
2026-05-05 23:21 50.67321 -114.82502 12204 ft 288 kts 65°
2026-05-05 23:21 50.68078 -114.79648 11865 ft 279 kts 59°
2026-05-05 23:21 50.68921 -114.76933 11534 ft 275 kts 59°
2026-05-05 23:22 50.69737 -114.74255 11202 ft 270 kts 60°
2026-05-05 23:22 50.70538 -114.71616 10869 ft 266 kts 60°
2026-05-05 23:22 50.71325 -114.69018 10537 ft 262 kts 60°
2026-05-05 23:22 50.72107 -114.66435 10203 ft 258 kts 61°
2026-05-05 23:23 50.72870 -114.63907 9872 ft 255 kts 62°
2026-05-05 23:23 50.73622 -114.61413 9542 ft 251 kts 62°
2026-05-05 23:23 50.74364 -114.58946 9216 ft 248 kts 63°
2026-05-05 23:23 50.75080 -114.56561 9020 ft 237 kts 63°
2026-05-05 23:24 50.75777 -114.54232 8679 ft 234 kts 63°
2026-05-05 23:24 50.76469 -114.51917 8353 ft 233 kts 63°
2026-05-05 23:24 50.77162 -114.49600 8026 ft 232 kts 63°
2026-05-05 23:24 50.77844 -114.47310 7711 ft 230 kts 63°
2026-05-05 23:25 50.78535 -114.44992 7521 ft 246 kts 63°
2026-05-05 23:25 50.79261 -114.42561 7358 ft 245 kts 63°
2026-05-05 23:25 50.79984 -114.40137 7157 ft 245 kts 63°
2026-05-05 23:25 50.80704 -114.37719 6956 ft 244 kts 63°
2026-05-05 23:26 50.81421 -114.35307 6754 ft 243 kts 63°
2026-05-05 23:26 50.82143 -114.32877 6552 ft 239 kts 64°
2026-05-05 23:26 50.82822 -114.30582 6468 ft 223 kts 64°
2026-05-05 23:26 50.83477 -114.28363 6501 ft 224 kts 64°
2026-05-05 23:27 50.84137 -114.26128 6502 ft 225 kts 64°
2026-05-05 23:27 50.84797 -114.23891 6499 ft 225 kts 64°
2026-05-05 23:27 50.85458 -114.21647 6500 ft 225 kts 64°
2026-05-05 23:27 50.86119 -114.19402 6499 ft 225 kts 64°
2026-05-05 23:28 50.86782 -114.17146 6500 ft 225 kts 64°
2026-05-05 23:28 50.87439 -114.14908 6524 ft 222 kts 64°
2026-05-05 23:28 50.88065 -114.12771 6534 ft 216 kts 64°
2026-05-05 23:28 50.88686 -114.10644 6490 ft 213 kts 64°
2026-05-05 23:29 50.89306 -114.08524 6502 ft 213 kts 64°
2026-05-05 23:29 50.89925 -114.06401 6499 ft 213 kts 64°
2026-05-05 23:29 50.90630 -114.04421 6443 ft 198 kts 46°
2026-05-05 23:29 50.91779 -114.03382 6223 ft 189 kts 20°
2026-05-05 23:30 50.92986 -114.02731 6037 ft 177 kts 17°
2026-05-05 23:30 50.94140 -114.02364 5843 ft 165 kts
2026-05-05 23:30 50.95270 -114.02227 5621 ft 158 kts
2026-05-05 23:30 50.96341 -114.02179 5371 ft 154 kts
2026-05-05 23:31 50.97409 -114.02158 5176 ft 155 kts
2026-05-05 23:31 50.98484 -114.02149 4982 ft 155 kts
2026-05-05 23:31 50.99562 -114.02147 4804 ft 152 kts
2026-05-05 23:31 51.00609 -114.02148 4794 ft 150 kts
2026-05-05 23:32 51.01654 -114.02143 4801 ft 151 kts
2026-05-05 23:32 51.02697 -114.02141 4798 ft 151 kts
2026-05-05 23:32 51.03746 -114.02141 4751 ft 153 kts
2026-05-05 23:32 51.04776 -114.02141 4529 ft 147 kts
2026-05-05 23:33 51.05793 -114.02140 4341 ft 147 kts
2026-05-05 23:33 51.06820 -114.02137 4147 ft 148 kts
2026-05-05 23:33 51.07844 -114.02138 3956 ft 148 kts
2026-05-05 23:33 51.08867 -114.02134 3760 ft 148 kts
2026-05-05 23:34 51.09882 -114.02136 3605 ft 146 kts
2026-05-05 23:34 51.10835 -114.02138 3573 ft 119 kts
2026-05-05 23:34 51.11349 -114.02132 3573 ft 38 kts
2026-05-05 23:34 51.11594 -114.02124 3573 ft 37 kts
2026-05-05 23:35 51.11868 -114.02125 3573 ft 41 kts 359°
2026-05-05 23:35 51.12142 -114.02125 3573 ft 35 kts
2026-05-05 23:35 51.12314 -114.02059 3573 ft 18 kts 30°
2026-05-05 23:35 51.12415 -114.01963 3573 ft 17 kts 30°
2026-05-05 23:36 51.12518 -114.01866 3573 ft 18 kts 31°
2026-05-05 23:36 51.12592 -114.01757 3573 ft 14 kts 68°
2026-05-05 23:36 51.12600 -114.01595 3573 ft 15 kts 89°
2026-05-05 23:36 51.12602 -114.01418 3573 ft 17 kts 89°
2026-05-05 23:37 51.12605 -114.01229 3573 ft 18 kts 88°
2026-05-05 23:37 51.12611 -114.01027 3573 ft 19 kts 87°
2026-05-05 23:37 51.12612 -114.00812 3573 ft 20 kts 90°
2026-05-05 23:37 51.12612 -114.00584 3573 ft 21 kts 90°
2026-05-05 23:38 51.12612 -114.00376 3573 ft 17 kts 90°
2026-05-05 23:38 51.12615 -114.00208 3573 ft 12 kts 77°
2026-05-05 23:38 51.12675 -114.00144 3573 ft 11 kts
2026-05-05 23:38 51.12750 -114.00144 3573 ft 11 kts 360°
2026-05-05 23:39 51.12821 -114.00159 3573 ft 10 kts 338°
2026-05-05 23:39 51.12863 -114.00215 3573 ft 6 kts 314°
2026-05-05 23:39 51.12878 -114.00239 3573 ft 0 kts 314°